ICEYE-X13 (48916 NORAD) Tracking and Keplerian Element Data

This shows tracking and keplerian element data for the satellite.

Feedback or suggestion? Click here.




ElementValue
Catalog48916
NameICEYE-X13
Epoch Orbit1290
Epoch Day262.17476914
Epoch Year2021
RAAN29.7938
Inclination97.5221
Eccentricity0.0011196
Argument of Perigee316.4022
Mean Anonmoly167.0808
Mean Motion15.12942208
Decay Rate1.432E-05
L11 48916U 21059AP 21262.17476914 .00001432 00000-0 84850-4 0 9996
L22 48916 97.5221 29.7938 0011196 316.4022 167.0808 15.12942208 12906

Live tracking and technical data element details for ICEYE-X13 (NORAD 48916). ICEYE-X13 can be tracked NOW for your location showing map with azimuth and elevation plus other details from your city location.

Track the satellite on the map from your city or location and see movement details for azimuth, elevation, latitude, longitude, range, height, and movement on the map or in text.







IsCatalogInMostPopularTable: catalog: 48916, numindb: 14
Update: records affected: 1



GetName: 48916 ICEYE-X13

Hit Count: updated at: Fri, 24 Sep 2021 19:05:51 GMT